Regional Weather Roundup
Issued by NWS Glasgow, MT

Home | Current Version | Previous Version | Text Only | Print | Product List | Glossary On
Versions: 1 2 3 4 5 6 7 8 9 10 11 12 13 14 15 16 17 18 19 20 21 22 23 24 25 26 27 28 29 30 31 32 33 34 35 36 37 38 39 40 41 42 43 44 45 46 47 48 49 50
000
ASUS45 KGGW 031215
RWRGGW
HOURLY REGIONAL WEATHER ROUNDUP FOR NORTHEAST MONTANA
NATIONAL WEATHER SERVICE GLASGOW MONTANA
600 AM MDT FRI JUL 03 2015

NOTE: "FAIR" INDICATES FEW OR NO CLOUDS BELOW 12,000 FEET WITH NO
SIGNIFICANT WEATHER AND/OR OBSTRUCTIONS TO VISISBILITY.

NORTHEAST MONTANA


CITY           SKY/WX    TMP DP  RH WIND       PRES   REMARKS
GLASGOW        CLEAR     60  55  83 E8        30.00S HAZE
6HR MIN TEMP:  59; 6HR MAX TEMP:  64;

PLENTYWOOD       N/A     56  54  93 NE3         N/A
WOLF POINT     FOG       58  56  93 CALM      30.01S VSB 1
JORDAN           N/A     55  50  83 W5        30.02S
WINNETT          N/A     53  50  89 CALM        N/A
SIDNEY         PTCLDY    61  57  88 CALM      30.02R
GLENDIVE       CLEAR     57  54  88 NW5       30.04S
MALTA            N/A     58  56  93 E1          N/A
SCOBEY         HAZE      52  47  83 CALM      30.01F VSB 1/4

FORT PECK REPORTS


CITY           SKY/WX    TMP DP  RH WIND       PRES   REMARKS
FORT PECK        N/A     62  56  80 E2          N/A
THE PINES        N/A     67  58  72 NE1         N/A

SOUTHEAST MONTANA


CITY           SKY/WX    TMP DP  RH WIND       PRES   REMARKS
BILLINGS       PTCLDY    63  50  62 CALM      30.06F HAZE
MILES CITY     PTCLDY    58  53  84 NW3       30.02S
BAKER          CLEAR     59  55  87 CALM      30.06R FOG
LIVINGSTON     CLEAR     56  49  77 CALM      30.11S

CENTRAL MONTANA


CITY           SKY/WX    TMP DP  RH WIND       PRES   REMARKS
HAVRE          CLEAR     54  51  90 CALM      29.96F FOG
LEWISTOWN      CLEAR     55  49  80 E7        30.06F HAZE
GREAT FALLS    CLEAR     59  49  69 SW8       30.00F
CUT BANK       CLEAR     58  48  69 SW3       30.01S
HELENA         CLEAR     63  48  58 SW3       30.05S
BUTTE          CLEAR     54  44  69 CALM      30.14S
BOZEMAN        CLEAR     59  49  69 N3        30.07F

WESTERN MONTANA


CITY           SKY/WX    TMP DP  RH WIND       PRES   REMARKS
MISSOULA       CLEAR     61  45  55 CALM      30.02R
KALISPELL      NOT AVBL

NORTH DAKOTA


CITY           SKY/WX    TMP DP  RH WIND       PRES   REMARKS
WILLISTON      PTCLDY    60  58  92 N3        30.02S FOG
DICKINSON      PTCLDY    59  57  93 S3        30.03R FOG
MINOT          CLOUDY    60  58  92 W3        29.99R FOG
BISMARCK       CLOUDY    63  61  93 W6        30.02R FOG

SOUTHERN SASKATCHEWAN


CITY           SKY/WX    TMP DP  RH WIND       PRES   REMARKS
REGINA         PTCLDY    57  55  94 SE7       30.00S FOG
MOOSE JAW      MOCLDY    63  59  88 S9        29.99S SMOKE
ESTEVAN        FOG       57  57 100 CALM      30.01S VSB 1/8
SWIFT CURRENT  CLEAR     59  55  88 S9        29.99S FOG



USA.gov is the U.S. government's official web portal to all federal, state and local government web resources and services.